TimeEST,TemperatureF,Dew PointF,Humidity,Sea Level PressureIn,VisibilityMPH,Wind Direction,Wind SpeedMPH,Gust SpeedMPH,PrecipitationIn,Events,Conditions,WindDirDegrees,DateUTC
12:54 AM,28.0,25.0,88,30.48,10.0,SSW,4.6,-,N/A,,Clear,210,2013-01-19 05:54:00
1:54 AM,27.0,24.1,89,30.47,10.0,Calm,Calm,-,N/A,,Clear,0,2013-01-19 06:54:00
2:54 AM,26.1,24.1,92,30.46,10.0,SSW,5.8,-,N/A,,Clear,210,2013-01-19 07:54:00
3:54 AM,26.1,23.0,88,30.47,10.0,WSW,3.5,-,N/A,,Clear,240,2013-01-19 08:54:00
4:54 AM,26.1,21.9,84,30.46,10.0,SW,5.8,-,N/A,,Clear,220,2013-01-19 09:54:00
5:54 AM,27.0,23.0,85,30.47,10.0,WSW,3.5,-,N/A,,Clear,240,2013-01-19 10:54:00
6:54 AM,27.0,21.9,81,30.46,10.0,West,5.8,-,N/A,,Clear,260,2013-01-19 11:54:00
7:54 AM,27.0,21.9,81,30.46,10.0,West,5.8,-,N/A,,Clear,260,2013-01-19 12:54:00
8:54 AM,32.0,24.1,73,30.46,10.0,WSW,6.9,-,N/A,,Clear,240,2013-01-19 13:54:00
9:54 AM,36.0,25.0,64,30.45,10.0,WSW,9.2,-,N/A,,Clear,240,2013-01-19 14:54:00
10:54 AM,39.0,25.0,57,30.43,10.0,WSW,10.4,-,N/A,,Clear,240,2013-01-19 15:54:00
11:54 AM,42.1,25.0,51,30.39,10.0,WSW,8.1,-,N/A,,Clear,240,2013-01-19 16:54:00
12:54 PM,44.1,26.1,49,30.33,10.0,West,5.8,-,N/A,,Clear,260,2013-01-19 17:54:00
1:54 PM,46.9,28.9,50,30.29,10.0,SW,4.6,-,N/A,,Clear,230,2013-01-19 18:54:00
2:54 PM,48.9,28.0,44,30.26,10.0,SSW,11.5,-,N/A,,Clear,200,2013-01-19 19:54:00
3:54 PM,48.9,28.0,44,30.23,10.0,SSW,8.1,-,N/A,,Clear,210,2013-01-19 20:54:00
4:54 PM,48.0,28.0,46,30.22,10.0,SSW,5.8,-,N/A,,Clear,210,2013-01-19 21:54:00
5:54 PM,45.0,26.1,48,30.22,10.0,SSW,4.6,-,N/A,,Clear,210,2013-01-19 22:54:00
6:54 PM,44.1,26.1,49,30.22,10.0,SSW,6.9,-,N/A,,Clear,210,2013-01-19 23:54:00
7:54 PM,39.0,27.0,62,30.22,10.0,SSW,6.9,-,N/A,,Clear,200,2013-01-20 00:54:00
8:54 PM,37.9,27.0,65,30.20,10.0,SSW,8.1,-,N/A,,Clear,210,2013-01-20 01:54:00
9:54 PM,39.0,26.1,60,30.18,10.0,SSW,5.8,-,N/A,,Clear,210,2013-01-20 02:54:00
10:54 PM,39.0,27.0,62,30.16,10.0,SW,9.2,-,N/A,,Clear,220,2013-01-20 03:54:00
11:54 PM,39.9,27.0,60,30.14,10.0,SW,10.4,-,N/A,,Clear,230,2013-01-20 04:54:00